Regional Weather Roundup
Issued by NWS

Home | Current Version | Previous Version | Graphics & Text | Print | Product List | Glossary On
Versions: 1 2 3 4 5 6 7 8 9 10 11 12 13 14 15 16 17 18 19 20 21 22 23 24 25 26 27 28 29 30 31 32 33 34 35 36 37 38 39 40 41 42 43 44 45 46 47 48 49 50
000
ASUS43 KLSX 272107
RWRMO

WEATHER SUMMARY FOR MISSOURI
NATIONAL WEATHER SERVICE SPRINGFIELD MO
300 PM CST TUE JAN 27 2015

NOTE: "FAIR" INDICATES FEW OR NO CLOUDS BELOW 12,000 FEET WITH NO
       SIGNIFICANT WEATHER AND/OR OBSTRUCTIONS TO VISIBILITY.
       CURRENT SKY AND/OR WEATHER CONDITIONS ARE NOT AVAILABLE FOR
       CHILLICOTHE AND FARMINGTON.

MOZ001>031-035>038-043-044-053-054-272200-
...NORTHERN AND WESTERN MISSOURI...

CITY           SKY/WX    TMP DP  RH WIND       PRES   REMARKS
KANSAS CTY INT MOSUNNY   55  32  41 S7        30.09F
KANSAS C DTWN  SUNNY     57  30  35 E5        30.09F
LEE`S SUMMIT   SUNNY     56  30  37 SE5       30.10F
ST JOSEPH      SUNNY     54  32  43 SE7       30.09F
CHILLICOTHE      N/A     50  33  52 SE3       30.14S
KIRKSVILLE     SUNNY     45  33  63 E5        30.15S

$$
MOZ066>068-077>081-088>096-101>105-272200-
...SOUTHWEST MISSOURI...

CITY           SKY/WX    TMP DP  RH WIND       PRES   REMARKS
SPRINGFIELD    SUNNY     58  27  30 CALM      30.10F
JOPLIN         SUNNY     63  27  25 CALM      30.12S

$$
MOZ032>034-039>042-045>050-055>058-069>072-272200-
...CENTRAL MISSOURI...

CITY           SKY/WX    TMP DP  RH WIND       PRES   REMARKS
COLUMBIA       SUNNY     50  32  50 CALM      30.13F
JEFFERSON CITY SUNNY     51  33  50 N5        30.13F
ROLLA          SUNNY     50  31  48 MISG      30.11S
SEDALIA        SUNNY     52  32  46 NE3       30.13F
WHITEMAN AFB   SUNNY     53  33  47 SE6       30.11F
WARRENSBURG    SUNNY     54  32  43 SE5       30.11S
OSAGE BEACH    SUNNY     54  30  40 CALM      30.12F

$$
MOZ051-052-059>065-272200-
...EAST CENTRAL MISSOURI...

CITY           SKY/WX    TMP DP  RH WIND       PRES   REMARKS
ST LOUIS INTL  PTSUNNY   44  31  60 N5        30.17R
SPIRIT OF STL  MOSUNNY   45  31  58 N5        30.15S
ST CHARLES     CLOUDY    43  31  62 NE8       30.17R

$$
MOZ072>076-082>087-097>100-106>115-272200-
...SOUTH CENTRAL AND SOUTHEAST MISSOURI...

CITY           SKY/WX    TMP DP  RH WIND       PRES   REMARKS
CAPE GIRARDEAU MOSUNNY   47  33  58 N14       30.15R
FARMINGTON     SUNNY     48  28  46 MISG      30.16R
POPLAR BLUFF   SUNNY     52  32  46 CALM      30.12S
WEST PLAINS    SUNNY     58  28  32 N5        30.11S

$$



USA.gov is the U.S. government's official web portal to all federal, state and local government web resources and services.